Meath Environmental Platform

Observations for Trim Market St

Time AQI Temp °C Hum % Pres Pa CO μg/m³ H₂S μg/m³ NO μg/m³ NO₂ μg/m³ O₃ μg/m³ SO₂ μg/m³ PM1 μg/m³ PM2.5 μg/m³ PM10 μg/m³
Tuesday 11 August 2026
12:11 2 39.8 18 67,025 0 0 0 15.02 97.79 3.72 0 3.25 3.57
12:08 2 40 19 67,033 0 0 0 12.41 83.77 4.59 0 3.79 4.17
12:04 2 40.1 18 67,061 0 0 0 15.37 101.56 3.86 0 3.81 4.19
12:02 2 40.4 18 67,080 0 0 0 14.58 105.2 4.45 0 3.82 4.2
11:58 2 40.8 19 67,094 0 0 0 14.46 111.86 4.68 0 3.23 3.55
11:57 2 40.7 19 67,100 0 0 0 14.63 100.93 4.44 0 3.79 4.16
11:56 2 40.7 19 67,104 0 0 0 14.79 126.54 4.22 0 3.24 3.56
11:53 2 40.8 19 67,082 0 0 0 14.75 114.8 3.94 0.71 3.79 4.17
11:52 2 40.8 19 67,088 0 0 0 14.14 112.73 4.11 0 3.24 3.56
11:50 2 40.9 19 67,096 0 0 0 13.18 95.93 3.95 0.71 3.78 4.16
11:49 2 40.8 19 67,132 0 0 0 13.12 104.56 4.14 0 3.76 4.14
11:48 2 40.8 19 67,118 0 0 0 14.1 101.32 3.8 0 3.21 3.53
11:47 2 40.8 19 67,098 0 0 0 14.04 95.53 3.86 0 3.21 3.53
11:40 2 40.2 20 67,019 0 0 0 14.31 97.57 1.87 0.71 4.27 4.7
11:37 2 39.9 22 66,996 0 0 0 12.82 95.05 2.69 0 3.12 3.43
11:36 2 39.8 21 66,969 0 0 0 15.63 88.4 0.87 0 3.14 3.45
11:31 2 39.3 21 66,939 0 0 0 14.32 73.39 0 0.71 4.81 5.29
11:28 1 39 21 66,884 0 0 0 14.37 82.79 0.22 0.71 4.23 4.66
11:27 1 38.9 21 66,908 0 0 0 19.24 63.83 0 0 3.12 3.44
11:26 1 38.8 22 66,882 0 0 0 14.07 79.92 1.08 0 3.12 3.43